GW1637 Weather Reports


Display with metric or nautical units.
time (UTC)temp
F
wind
direction
speed
MPH
gust
MPH
rain 1hr
in
rain 24hr
in
rain mn
in
humidity
%
barometer
mb
20260906224413 88 114 2.0 6.0 0.00 0.00 0.00 37 1016.4
20260906223909 88 335 4.0 6.0 0.00 0.00 0.00 37 1016.7
20260906223405 89 326 4.0 10.0 0.00 0.00 0.00 37 1016.4
20260906222903 90 337 0.0 9.0 0.00 0.00 0.00 35 1016.5
20260906222403 90 349 4.0 7.0 0.00 0.00 0.00 35 1016.7
20260906221900 91 48 2.0 8.0 0.00 0.00 0.00 35 1016.9
20260906221359 91 303 2.0 5.0 0.00 0.00 0.00 34 1016.8
20260906220855 89 83 0.0 5.0 0.00 0.00 0.00 35 1016.9
20260906220350 89 59 2.0 5.0 0.00 0.00 0.00 35 1016.9
20260906215849 89 73 5.0 8.0 0.00 0.00 0.00 37 1017.0
20260906215344 90 23 3.0 8.0 0.00 0.00 0.00 36 1017.0
20260906214842 90 324 3.0 6.0 0.00 0.00 0.00 35 1017.0
20260906214342 90 102 3.0 3.0 0.00 0.00 0.00 35 1017.2
20260906213841 89 328 5.0 5.0 0.00 0.00 0.00 36 1017.4
20260906213336 89 75 3.0 4.0 0.00 0.00 0.00 37 1017.2
20260906212833 89 26 1.0 5.0 0.00 0.00 0.00 36 1017.5
20260906212329 89 13 3.0 6.0 0.00 0.00 0.00 37 1017.5
20260906211828 88 57 2.0 12.0 0.00 0.00 0.00 39 1017.7
20260906211324 89 3 3.0 6.0 0.00 0.00 0.00 37 1017.7
20260906210819 89 334 4.0 6.0 0.00 0.00 0.00 37 1017.7
20260906210319 89 94 7.0 7.0 0.00 0.00 0.00 37 1018.0
20260906205814 88 111 0.0 4.0 0.00 0.00 0.00 37 1018.2
20260906205310 88 122 4.0 6.0 0.00 0.00 0.00 37 1018.1
20260906204806 87 341 5.0 7.0 0.00 0.00 0.00 38 1018.3
20260906204305 87 349 2.0 7.0 0.00 0.00 0.00 38 1018.2
20260906203804 87 85 0.0 4.0 0.00 0.00 0.00 37 1018.3
20260906203300 86 297 3.0 6.0 0.00 0.00 0.00 38 1018.2
20260906202756 87 74 7.0 7.0 0.00 0.00 0.00 38 1018.3
20260906202256 87 99 0.0 4.0 0.00 0.00 0.00 37 1018.1
20260906201751 86 114 0.0 5.0 0.00 0.00 0.00 38 1018.5
20260906201250 86 94 2.0 4.0 0.00 0.00 0.00 38 1018.5
20260906200746 87 343 4.0 6.0 0.00 0.00 0.00 37 1018.8
20260906200242 86 125 2.0 6.0 0.00 0.00 0.00 38 1018.3
20260906195737 87 50 3.0 5.0 0.00 0.00 0.00 37 1018.5
20260906195233 87 120 4.0 7.0 0.00 0.00 0.00 37 1018.4
20260906194729 88 85 0.0 3.0 0.00 0.00 0.00 37 1018.7
20260906194225 86 105 2.0 4.0 0.00 0.00 0.00 38 1018.9
20260906193720 86 119 0.0 6.0 0.00 0.00 0.00 39 1019.1
20260906193220 85 112 0.0 6.0 0.00 0.00 0.00 40 1018.8
20260906192716 84 4 4.0 7.0 0.00 0.00 0.00 40 1019.0
20260906192210 85 79 3.0 7.0 0.00 0.00 0.00 39 1018.9
20260906191710 86 33 3.0 4.0 0.00 0.00 0.00 40 1019.3
20260906191204 84 345 2.0 9.0 0.00 0.00 0.00 41 1019.1
20260906190658 84 95 4.0 7.0 0.00 0.00 0.00 41 1019.3
20260906190153 83 111 3.0 5.0 0.00 0.00 0.00 42 1019.3
20260906185652 83 117 5.0 5.0 0.00 0.00 0.00 42 1019.4
20260906185151 84 116 4.0 5.0 0.00 0.00 0.00 42 1019.5
20260906184645 85 61 3.0 4.0 0.00 0.00 0.00 42 1019.6
20260906184141 82 283 2.0 6.0 0.00 0.00 0.00 44 1019.8
20260906183637 84 8 1.0 5.0 0.00 0.00 0.00 43 1019.8
20260906183133 83 346 2.0 3.0 0.00 0.00 0.00 44 1019.7
20260906182627 83 123 2.0 7.0 0.00 0.00 0.00 44 1019.8
20260906182123 84 115 2.0 3.0 0.00 0.00 0.00 43 1019.8
20260906181618 82 75 3.0 4.0 0.00 0.00 0.00 45 1020.3
20260906181114 82 109 2.0 3.0 0.00 0.00 0.00 44 1020.4
20260906180609 82 85 2.0 4.0 0.00 0.00 0.00 45 1020.4
20260906180103 81 68 3.0 4.0 0.00 0.00 0.00 48 1020.1
20260906175602 80 111 1.0 4.0 0.00 0.00 0.00 49 1020.3
20260906175056 80 86 3.0 6.0 0.00 0.00 0.00 48 1020.3
20260906174554 80 355 2.0 3.0 0.00 0.00 0.00 48 1020.8
20260906174050 80 90 2.0 5.0 0.00 0.00 0.00 49 1020.6
20260906173544 80 79 3.0 5.0 0.00 0.00 0.00 48 1020.7
20260906173040 78 7 0.0 7.0 0.00 0.00 0.00 51 1020.7
20260906172535 80 350 3.0 4.0 0.00 0.00 0.00 51 1021.0
20260906172030 81 265 2.0 3.0 0.00 0.00 0.00 49 1021.1
20260906171525 78 110 4.0 4.0 0.00 0.00 0.00 52 1021.1
20260906171021 78 24 0.0 5.0 0.00 0.00 0.00 52 1021.1
20260906170516 78 328 2.0 3.0 0.00 0.00 0.00 53 1020.9
20260906170015 78 6 4.0 5.0 0.00 0.00 0.00 53 1021.1
20260906165512 78 60 2.0 3.0 0.00 0.00 0.00 53 1021.3
20260906165007 77 334 2.0 5.0 0.00 0.00 0.00 55 1021.5
20260906164506 77 90 1.0 4.0 0.00 0.00 0.00 55 1021.5
20260906164003 76 337 0.0 3.0 0.00 0.00 0.00 54 1021.5
20260906163458 76 90 0.0 4.0 0.00 0.00 0.00 55 1021.7
20260906162956 76 10 0.0 2.0 0.00 0.00 0.00 55 1021.6
20260906162455 76 126 1.0 3.0 0.00 0.00 0.00 56 1021.4
20260906161950 75 65 2.0 2.0 0.00 0.00 0.00 60 1021.4
20260906161449 74 327 3.0 7.0 0.00 0.00 0.00 59 1021.4
20260906160949 74 112 2.0 3.0 0.00 0.00 0.00 59 1021.1
20260906160442 75 187 0.0 2.0 0.00 0.00 0.00 58 1021.4
20260906155940 74 125 2.0 2.0 0.00 0.00 0.00 61 1021.3
20260906155434 72 352 0.0 2.0 0.00 0.00 0.00 63 1021.5
20260906154930 72 71 2.0 3.0 0.00 0.00 0.00 64 1021.3
20260906154425 72 83 0.0 3.0 0.00 0.00 0.00 64 1021.4
20260906153923 71 90 4.0 7.0 0.00 0.00 0.00 65 1021.4
20260906153422 71 35 3.0 6.0 0.00 0.00 0.00 64 1021.3
20260906152918 72 72 2.0 6.0 0.00 0.00 0.00 65 1021.3
20260906152413 72 147 2.0 4.0 0.00 0.00 0.00 66 1021.4
20260906151912 71 71 2.0 3.0 0.00 0.00 0.00 67 1021.5
20260906151408 70 26 3.0 5.0 0.00 0.00 0.00 65 1021.6
20260906150903 70 81 0.0 4.0 0.00 0.00 0.00 66 1021.4
20260906150358 70 0 2.0 4.0 0.00 0.00 0.00 66 1021.5
20260906145857 70 45 2.0 3.0 0.00 0.00 0.00 67 1021.6
20260906145351 70 212 2.0 2.0 0.00 0.00 0.00 67 1021.7
20260906144845 69 353 0.0 2.0 0.00 0.00 0.00 68 1021.6
20260906144341 69 90 1.0 5.0 0.00 0.00 0.00 69 1021.6
20260906143841 69 39 3.0 4.0 0.00 0.00 0.00 68 1021.5
20260906143337 69 41 4.0 4.0 0.00 0.00 0.00 67 1021.9
20260906142833 68 132 0.0 3.0 0.00 0.00 0.00 69 1021.9
20260906142327 68 0 0.0 4.0 0.00 0.00 0.00 71 1021.4
20260906141827 68 3 2.0 4.0 0.00 0.00 0.00 71 1021.5
20260906141322 69 14 2.0 3.0 0.00 0.00 0.00 69 1021.6
20260906140820 70 18 1.0 3.0 0.00 0.00 0.00 65 1021.7
20260906140315 69 165 1.0 4.0 0.00 0.00 0.00 66 1021.9
20260906135813 68 209 0.0 3.0 0.00 0.00 0.00 67 1021.9
20260906135308 67 270 2.0 2.0 0.00 0.00 0.00 67 1021.7
20260906134803 66 192 2.0 3.0 0.00 0.00 0.00 68 1021.9
20260906134258 66 180 0.0 2.0 0.00 0.00 0.00 69 1021.9
20260906133754 67 195 0.0 1.0 0.00 0.00 0.00 68 1021.6
20260906133249 66 74 0.0 1.0 0.00 0.00 0.00 70 1021.9
20260906132745 65 18 0.0 2.0 0.00 0.00 0.00 72 1021.4
20260906132240 64 356 2.0 2.0 0.00 0.00 0.00 73 1021.6
20260906131736 63 29 0.0 2.0 0.00 0.00 0.00 76 1021.4
20260906131230 62 180 0.0 0.0 0.00 0.00 0.00 78 1021.7
20260906130726 62 120 2.0 2.0 0.00 0.00 0.00 78 1021.5
20260906130221 61 215 0.0 2.0 0.00 0.00 0.00 78 1021.5
20260906125719 61 252 2.0 2.0 0.00 0.00 0.00 79 1021.1
20260906125218 61 203 1.0 1.0 0.00 0.00 0.00 79 1021.1
20260906124713 61 0 0.0 0.0 0.00 0.00 0.00 80 1021.4
20260906124209 60 255 0.0 1.0 0.00 0.00 0.00 80 1021.5
20260906123707 60 251 0.0 2.0 0.00 0.00 0.00 80 1021.1
20260906123203 60 90 0.0 1.0 0.00 0.00 0.00 80 1021.4
20260906122701 61 221 2.0 2.0 0.00 0.00 0.00 80 1021.0
20260906122157 61 184 0.0 2.0 0.00 0.00 0.00 79 1021.1
20260906121654 61 29 0.0 0.0 0.00 0.00 0.00 79 1021.4
20260906121149 61 165 0.0 1.0 0.00 0.00 0.00 78 1021.4
20260906120645 62 180 1.0 2.0 0.00 0.00 0.00 78 1021.1
20260906120137 62 191 2.0 2.0 0.00 0.00 0.00 77 1021.3
20260906115637 62 243 0.0 2.0 0.00 0.00 0.00 78 1021.4
20260906115132 62 188 0.0 2.0 0.00 0.00 0.00 78 1021.4
20260906114631 62 225 2.0 2.0 0.00 0.00 0.00 78 1021.1
20260906114126 62 195 1.0 1.0 0.00 0.00 0.00 78 1021.6
20260906113620 62 142 0.0 2.0 0.00 0.00 0.00 78 1021.1
20260906113115 63 206 1.0 1.0 0.00 0.00 0.00 78 1020.8
20260906112614 63 255 0.0 2.0 0.00 0.00 0.00 77 1021.3
20260906112111 63 8 0.0 2.0 0.00 0.00 0.00 77 1021.5
20260906111610 63 0 0.0 2.0 0.00 0.00 0.00 76 1021.3
20260906111106 63 14 0.0 3.0 0.00 0.00 0.00 75 1020.9
20260906110606 64 0 0.0 3.0 0.00 0.00 0.00 74 1020.9
20260906110100 64 352 0.0 4.0 0.00 0.00 0.00 73 1020.9
20260906105555 64 0 6.0 6.0 0.00 0.00 0.00 72 1021.0
20260906105051 64 343 4.0 5.0 0.00 0.00 0.00 70 1021.1
20260906104549 64 320 2.0 5.0 0.00 0.00 0.00 67 1020.9
20260906104044 64 0 2.0 3.0 0.00 0.00 0.00 64 1021.4
20260906103542 65 6 3.0 5.0 0.00 0.00 0.00 63 1021.0
20260906103038 65 6 1.0 4.0 0.00 0.00 0.00 61 1020.9
20260906102537 65 356 0.0 3.0 0.00 0.00 0.00 61 1020.7
20260906102033 65 356 2.0 4.0 0.00 0.00 0.00 61 1020.8
20260906101527 65 352 0.0 3.0 0.00 0.00 0.00 61 1020.7
20260906101022 65 286 1.0 2.0 0.00 0.00 0.00 61 1020.7
20260906100518 65 264 0.0 0.0 0.00 0.00 0.00 60 1020.8
20260906100012 65 352 0.0 0.0 0.00 0.00 0.00 61 1020.8
20260906095507 65 73 2.0 2.0 0.00 0.00 0.00 61 1020.9
20260906095003 66 261 0.0 0.0 0.00 0.00 0.00 60 1021.0
20260906094501 66 172 0.0 0.0 0.00 0.00 0.00 59 1021.0
20260906093957 66 240 0.0 1.0 0.00 0.00 0.00 60 1020.7
20260906093454 66 0 0.0 1.0 0.00 0.00 0.00 60 1021.0
20260906092954 66 246 0.0 2.0 0.00 0.00 0.00 59 1020.8
20260906092454 66 144 0.0 2.0 0.00 0.00 0.00 57 1020.8
20260906091949 67 203 0.0 1.0 0.00 0.00 0.00 57 1020.7
20260906091445 68 234 0.0 1.0 0.00 0.00 0.00 56 1020.8
20260906090941 68 337 1.0 2.0 0.00 0.00 0.00 55 1020.6
20260906090436 67 311 0.0 2.0 0.00 0.00 0.00 57 1020.7
20260906085930 67 200 0.0 0.0 0.00 0.00 0.00 58 1020.7
20260906085429 68 57 2.0 2.0 0.00 0.00 0.00 57 1020.2
20260906084928 68 200 0.0 2.0 0.00 0.00 0.00 57 1020.2
20260906084424 68 98 1.0 2.0 0.00 0.00 0.00 56 1020.3
20260906083923 69 0 0.0 0.0 0.00 0.00 0.00 56 1020.6
20260906083418 69 14 0.0 2.0 0.00 0.00 0.00 56 1020.7
20260906082917 69 15 0.0 2.0 0.00 0.00 0.00 52 1020.3
20260906082413 71 126 1.0 2.0 0.00 0.00 0.00 50 1020.1
20260906081909 71 180 0.0 1.0 0.00 0.00 0.00 49 1020.3
20260906081404 71 90 0.0 2.0 0.00 0.00 0.00 49 1020.2
20260906080900 72 197 2.0 5.0 0.00 0.00 0.00 48 1020.1
20260906080357 72 254 0.0 4.0 0.00 0.00 0.00 47 1019.8
20260906075855 73 239 5.0 9.0 0.00 0.00 0.00 47 1020.2
20260906075351 72 273 3.0 7.0 0.00 0.00 0.00 47 1020.3
20260906074846 73 239 3.0 3.0 0.00 0.00 0.00 47 1020.4
20260906074346 73 214 3.0 5.0 0.00 0.00 0.00 47 1020.3
20260906073844 73 229 2.0 5.0 0.00 0.00 0.00 47 1020.3
20260906073339 73 255 3.0 6.0 0.00 0.00 0.00 46 1020.1
20260906072836 73 240 8.0 9.0 0.00 0.00 0.00 47 1020.0
20260906072332 72 258 6.0 6.0 0.00 0.00 0.00 48 1020.2
20260906071827 72 238 3.0 5.0 0.00 0.00 0.00 49 1020.2
20260906071322 72 300 0.0 9.0 0.00 0.00 0.00 49 1020.2
20260906070818 72 291 5.0 13.0 0.00 0.00 0.00 49 1020.6
20260906070313 72 227 3.0 3.0 0.00 0.00 0.00 50 1020.3
20260906065808 72 357 5.0 6.0 0.00 0.00 0.00 49 1020.2
20260906065305 73 0 2.0 5.0 0.00 0.00 0.00 49 1020.7
20260906064759 73 77 1.0 4.0 0.00 0.00 0.00 48 1020.2
20260906064255 73 15 0.0 3.0 0.00 0.00 0.00 48 1020.3
20260906063749 73 229 3.0 6.0 0.00 0.00 0.00 48 1020.4
20260906063245 73 148 0.0 2.0 0.00 0.00 0.00 49 1020.7
20260906062740 72 11 6.0 6.0 0.00 0.00 0.00 49 1020.6
20260906062239 72 29 0.0 2.0 0.00 0.00 0.00 50 1020.6
20260906061735 73 220 2.0 3.0 0.00 0.00 0.00 48 1020.4
20260906061231 72 112 0.0 2.0 0.00 0.00 0.00 50 1020.6
20260906060726 73 223 4.0 4.0 0.00 0.00 0.00 49 1020.6
20260906060224 73 243 1.0 4.0 0.00 0.00 0.00 49 1020.8
20260906055719 73 0 0.0 3.0 0.00 0.00 0.00 50 1020.7
20260906055214 73 191 3.0 8.0 0.00 0.00 0.00 50 1020.7
20260906054709 72 194 4.0 5.0 0.00 0.00 0.00 52 1020.8
20260906054204 73 195 0.0 5.0 0.00 0.00 0.00 54 1020.8
20260906053701 73 246 3.0 8.0 0.00 0.00 0.00 53 1021.0
20260906053156 73 190 3.0 5.0 0.00 0.00 0.00 53 1020.8
20260906052651 74 215 1.0 11.0 0.00 0.00 0.00 51 1021.0
20260906052148 75 257 2.0 7.0 0.00 0.00 0.00 49 1021.0
20260906051644 76 254 0.0 4.0 0.00 0.00 0.00 45 1021.3
20260906051143 76 263 3.0 4.0 0.00 0.00 0.00 44 1021.1
20260906050639 77 270 0.0 2.0 0.00 0.00 0.00 43 1021.6
20260906050134 77 270 2.0 2.0 0.00 0.00 0.00 43 1021.4
20260906045632 77 187 1.0 5.0 0.00 0.00 0.00 43 1021.4
20260906045128 77 247 2.0 6.0 0.00 0.00 0.00 42 1021.6
20260906044624 78 191 4.0 9.0 0.00 0.00 0.00 41 1021.4
20260906044119 78 189 5.0 12.0 0.00 0.00 0.00 39 1021.5
20260906043615 79 180 2.0 9.0 0.00 0.00 0.00 39 1021.3
20260906043110 79 165 4.0 8.0 0.00 0.00 0.00 38 1021.3
20260906042609 79 193 3.0 11.0 0.00 0.00 0.00 39 1021.1
20260906042104 79 180 3.0 9.0 0.00 0.00 0.00 38 1020.7
20260906041600 78 225 4.0 5.0 0.00 0.00 0.00 38 1020.3
20260906041055 77 285 0.0 4.0 0.00 0.00 0.00 39 1020.2
20260906040550 76 261 0.0 4.0 0.00 0.00 0.00 40 1020.2
20260906040046 75 270 0.0 2.0 0.00 0.00 0.00 42 1020.4
20260906035541 75 78 2.0 3.0 0.00 0.00 0.00 42 1020.1
20260906035037 75 270 1.0 2.0 0.00 0.00 0.00 43 1020.2
20260906034536 75 0 1.0 1.0 0.00 0.00 0.00 42 1020.0
20260906034031 76 120 0.0 2.0 0.00 0.00 0.00 41 1019.8
20260906033526 77 80 3.0 3.0 0.00 0.00 0.00 39 1019.5
20260906033022 77 237 2.0 3.0 0.00 0.00 0.00 39 1019.8
20260906032519 77 110 2.0 2.0 0.00 0.00 0.00 39 1019.8
20260906032018 78 231 3.0 3.0 0.00 0.00 0.00 37 1019.6
20260906031514 78 159 2.0 5.0 0.00 0.00 0.00 36 1019.8
20260906031003 78 143 2.0 3.0 0.00 0.00 0.00 36 1019.6
20260906030458 78 232 6.0 6.0 0.00 0.00 0.00 36 1019.6
20260906025957 77 180 2.0 3.0 0.00 0.00 0.00 37 1019.7
20260906025457 77 228 2.0 3.0 0.00 0.00 0.00 37 1019.3
20260906024955 77 270 1.0 2.0 0.00 0.00 0.00 38 1019.1
20260906024450 77 236 2.0 3.0 0.00 0.00 0.00 38 1019.1
20260906023945 77 240 0.0 1.0 0.00 0.00 0.00 38 1019.0
20260906023441 78 151 0.0 2.0 0.00 0.00 0.00 36 1018.8
20260906022936 78 140 0.0 2.0 0.00 0.00 0.00 36 1018.9
20260906022431 79 172 0.0 2.0 0.00 0.00 0.00 35 1018.9
20260906021926 78 180 0.0 0.0 0.00 0.00 0.00 35 1019.0
20260906021426 79 157 0.0 1.0 0.00 0.00 0.00 35 1018.8
20260906020920 80 187 0.0 0.0 0.00 0.00 0.00 34 1018.8
20260906020415 80 187 0.0 1.0 0.00 0.00 0.00 33 1018.9
20260906015909 80 114 0.0 0.0 0.00 0.00 0.00 33 1018.8
20260906015409 81 270 0.0 0.0 0.00 0.00 0.00 33 1018.8
20260906014908 81 239 2.0 2.0 0.00 0.00 0.00 33 1018.9
20260906014403 81 262 0.0 4.0 0.00 0.00 0.00 33 1018.8
20260906013859 81 228 2.0 3.0 0.00 0.00 0.00 34 1018.9
20260906013355 81 180 0.0 2.0 0.00 0.00 0.00 35 1018.8
20260906012850 81 221 2.0 3.0 0.00 0.00 0.00 35 1018.4
20260906012344 81 246 1.0 1.0 0.00 0.00 0.00 35 1018.5
20260906011844 82 234 0.0 2.0 0.00 0.00 0.00 34 1018.8
20260906011339 82 270 0.0 0.0 0.00 0.00 0.00 34 1018.4
20260906010835 82 270 0.0 3.0 0.00 0.00 0.00 33 1018.7
20260906010331 83 286 0.0 3.0 0.00 0.00 0.00 33 1018.5
20260906005826 84 270 0.0 2.0 0.00 0.00 0.00 32 1018.7
20260906005325 84 297 0.0 3.0 0.00 0.00 0.00 32 1018.7
20260906004824 84 259 0.0 2.0 0.00 0.00 0.00 32 1018.4
20260906004324 85 249 0.0 2.0 0.00 0.00 0.00 32 1018.8
20260906003819 85 0 0.0 3.0 0.00 0.00 0.00 31 1018.5
20260906003315 85 261 0.0 0.0 0.00 0.00 0.00 31 1018.4
20260906002810 86 237 0.0 0.0 0.00 0.00 0.00 32 1018.4
20260906002309 86 234 0.0 1.0 0.00 0.00 0.00 31 1018.7
20260906001805 86 337 0.0 2.0 0.00 0.00 0.00 29 1018.3
20260906001301 87 23 0.0 2.0 0.00 0.00 0.00 29 1018.5
20260906000756 87 279 0.0 1.0 0.00 0.00 0.00 29 1018.3
20260906000256 87 180 0.0 0.0 0.00 0.00 0.00 29 1018.4
20260905235751 87 279 0.0 2.0 0.00 0.00 0.00 29 1018.3
20260905235250 87 90 0.0 2.0 0.00 0.00 0.00 29 1018.4
20260905234746 88 180 0.0 3.0 0.00 0.00 0.00 28 1018.5
20260905234241 88 26 2.0 4.0 0.00 0.00 0.00 27 1018.2
20260905233736 89 23 3.0 6.0 0.00 0.00 0.00 26 1018.5
20260905233236 91 5 2.0 5.0 0.00 0.00 0.00 26 1018.3
20260905232730 92 84 2.0 4.0 0.00 0.00 0.00 27 1018.3
20260905232226 91 102 4.0 9.0 0.00 0.00 0.00 26 1018.1
20260905231722 91 81 2.0 5.0 0.00 0.00 0.00 26 1018.2
20260905231217 92 131 2.0 3.0 0.00 0.00 0.00 26 1018.0
20260905230713 91 356 2.0 4.0 0.00 0.00 0.00 25 1018.2
20260905230211 92 114 0.0 5.0 0.00 0.00 0.00 25 1018.2
20260905225710 94 135 2.0 5.0 0.00 0.00 0.00 24 1018.0
20260905225206 94 45 0.0 4.0 0.00 0.00 0.00 24 1017.8
20260905224705 94 228 3.0 3.0 0.00 0.00 0.00 23 1018.0